Time,TemperatureF,DewpointF,PressureIn,WindDirection,WindDirectionDegrees,WindSpeedMPH,WindSpeedGustMPH,Humidity,HourlyPrecipIn,Conditions,Clouds,dailyrainin,SoftwareType,DateUTC
2013-04-04 00:00:00,53.1,19.9,30.32,SSE,147,3.0,4.0,27,0.00,,,0.00,meteohub,2013-04-04 04:00:00,
2013-04-04 00:05:00,53.1,19.9,30.32,SSE,155,3.0,4.0,27,0.00,,,0.00,meteohub,2013-04-04 04:05:00,
2013-04-04 00:10:00,53.1,19.9,30.32,SE,138,0.0,4.0,27,0.00,,,0.00,meteohub,2013-04-04 04:10:00,
2013-04-04 00:15:00,52.9,19.8,30.29,SE,136,0.0,3.0,27,0.00,,,0.00,meteohub,2013-04-04 04:15:00,
2013-04-04 00:20:00,52.9,19.8,30.29,East,101,0.0,4.0,27,0.00,,,0.00,meteohub,2013-04-04 04:20:00,
2013-04-04 00:25:00,52.9,19.8,30.29,East,96,0.0,4.0,27,0.00,,,0.00,meteohub,2013-04-04 04:25:00,
2013-04-04 00:30:00,52.9,19.8,30.29,ESE,116,0.0,4.0,27,0.00,,,0.00,meteohub,2013-04-04 04:30:00,
2013-04-04 00:35:00,52.9,19.8,30.29,SE,125,0.0,3.0,27,0.00,,,0.00,meteohub,2013-04-04 04:35:00,
2013-04-04 00:40:00,52.7,19.6,30.29,East,101,2.0,4.0,27,0.00,,,0.00,meteohub,2013-04-04 04:40:00,
2013-04-04 00:45:00,52.7,20.5,30.29,ESE,106,0.0,4.0,28,0.00,,,0.00,meteohub,2013-04-04 04:45:00,
2013-04-04 00:50:00,52.7,20.5,30.29,ESE,102,4.0,4.0,28,0.00,,,0.00,meteohub,2013-04-04 04:50:00,
2013-04-04 00:55:00,52.7,20.5,30.29,ESE,108,0.0,4.0,28,0.00,,,0.00,meteohub,2013-04-04 04:55:00,
2013-04-04 01:00:00,52.7,20.5,30.29,ESE,115,0.0,5.0,28,0.00,,,0.00,meteohub,2013-04-04 05:00:00,
2013-04-04 01:05:00,52.5,19.4,30.29,ENE,71,3.0,5.0,27,0.00,,,0.00,meteohub,2013-04-04 05:05:00,
2013-04-04 01:10:00,52.5,20.3,30.29,East,88,3.0,5.0,28,0.00,,,0.00,meteohub,2013-04-04 05:10:00,
2013-04-04 01:15:00,52.5,19.4,30.29,ESE,117,3.0,6.0,27,0.00,,,0.00,meteohub,2013-04-04 05:15:00,
2013-04-04 01:20:00,52.5,19.4,30.29,ESE,120,3.0,6.0,27,0.00,,,0.00,meteohub,2013-04-04 05:20:00,
2013-04-04 01:25:00,52.5,20.3,30.29,ESE,111,2.0,5.0,28,0.00,,,0.00,meteohub,2013-04-04 05:25:00,
2013-04-04 01:30:00,52.3,20.1,30.29,ESE,111,4.0,5.0,28,0.00,,,0.00,meteohub,2013-04-04 05:30:00,
2013-04-04 01:35:00,52.3,20.1,30.29,East,100,3.0,4.0,28,0.00,,,0.00,meteohub,2013-04-04 05:35:00,
2013-04-04 01:40:00,52.3,20.1,30.29,East,99,0.0,5.0,28,0.00,,,0.00,meteohub,2013-04-04 05:40:00,
2013-04-04 01:45:00,52.3,20.1,30.29,ESE,111,3.0,6.0,28,0.00,,,0.00,meteohub,2013-04-04 05:45:00,
2013-04-04 01:51:00,52.3,20.1,30.29,ESE,113,5.0,6.0,28,0.00,,,0.00,meteohub,2013-04-04 05:51:00,
2013-04-04 01:56:00,52.3,20.1,30.29,ESE,105,3.0,6.0,28,0.00,,,0.00,meteohub,2013-04-04 05:56:00,
2013-04-04 02:01:00,52.3,20.1,30.29,SE,129,3.0,6.0,28,0.00,,,0.00,meteohub,2013-04-04 06:01:00,
2013-04-04 02:06:00,52.3,20.1,30.29,SE,135,5.0,6.0,28,0.00,,,0.00,meteohub,2013-04-04 06:06:00,
2013-04-04 02:11:00,52.3,20.1,30.29,ESE,110,3.0,6.0,28,0.00,,,0.00,meteohub,2013-04-04 06:11:00,
2013-04-04 02:18:00,52.2,20.1,30.29,SE,125,4.0,6.0,28,0.00,,,0.00,meteohub,2013-04-04 06:18:00,
2013-04-04 02:23:00,52.2,20.1,30.29,ESE,104,4.0,6.0,28,0.00,,,0.00,meteohub,2013-04-04 06:23:00,
2013-04-04 02:28:00,52.2,20.1,30.29,East,101,4.0,6.0,28,0.00,,,0.00,meteohub,2013-04-04 06:28:00,
2013-04-04 02:33:00,52.2,20.1,30.29,ESE,102,3.0,6.0,28,0.00,,,0.00,meteohub,2013-04-04 06:33:00,
2013-04-04 02:38:00,52.2,20.1,30.29,ESE,111,0.0,6.0,28,0.00,,,0.00,meteohub,2013-04-04 06:38:00,
2013-04-04 02:43:00,52.2,20.1,30.29,ESE,115,4.0,5.0,28,0.00,,,0.00,meteohub,2013-04-04 06:43:00,
2013-04-04 02:48:00,52.0,19.9,30.29,East,89,4.0,5.0,28,0.00,,,0.00,meteohub,2013-04-04 06:48:00,
2013-04-04 02:53:00,52.0,19.9,30.29,ESE,108,4.0,5.0,28,0.00,,,0.00,meteohub,2013-04-04 06:53:00,
2013-04-04 02:58:00,52.0,19.9,30.26,ESE,110,5.0,6.0,28,0.00,,,0.00,meteohub,2013-04-04 06:58:00,
2013-04-04 03:03:00,52.0,19.0,30.26,SE,125,6.0,7.0,27,0.00,,,0.00,meteohub,2013-04-04 07:03:00,
2013-04-04 03:08:00,51.8,18.9,30.26,ESE,115,5.0,7.0,27,0.00,,,0.00,meteohub,2013-04-04 07:08:00,
2013-04-04 03:13:00,51.8,18.9,30.26,East,90,3.0,8.0,27,0.00,,,0.00,meteohub,2013-04-04 07:13:00,
2013-04-04 03:19:00,51.8,18.9,30.26,East,89,6.0,8.0,27,0.00,,,0.00,meteohub,2013-04-04 07:19:00,
2013-04-04 03:24:00,51.8,18.9,30.26,East,100,4.0,8.0,27,0.00,,,0.00,meteohub,2013-04-04 07:24:00,
2013-04-04 03:30:00,51.8,18.9,30.26,SE,134,3.0,9.0,27,0.00,,,0.00,meteohub,2013-04-04 07:30:00,
2013-04-04 03:35:00,51.6,18.7,30.26,ESE,109,4.0,9.0,27,0.00,,,0.00,meteohub,2013-04-04 07:35:00,
2013-04-04 03:40:00,51.6,18.7,30.26,ESE,109,3.0,6.0,27,0.00,,,0.00,meteohub,2013-04-04 07:40:00,
2013-04-04 03:45:00,51.6,18.7,30.26,ESE,117,4.0,6.0,27,0.00,,,0.00,meteohub,2013-04-04 07:45:00,
2013-04-04 03:50:00,51.6,18.7,30.26,SE,127,6.0,6.0,27,0.00,,,0.00,meteohub,2013-04-04 07:50:00,
2013-04-04 03:55:00,51.4,18.5,30.26,ESE,109,2.0,6.0,27,0.00,,,0.00,meteohub,2013-04-04 07:55:00,
2013-04-04 04:00:00,51.4,18.5,30.26,SSE,161,5.0,6.0,27,0.00,,,0.00,meteohub,2013-04-04 08:00:00,
2013-04-04 04:05:00,51.4,18.5,30.26,East,83,4.0,8.0,27,0.00,,,0.00,meteohub,2013-04-04 08:05:00,
2013-04-04 04:10:00,51.3,18.3,30.26,SE,125,5.0,8.0,27,0.00,,,0.00,meteohub,2013-04-04 08:10:00,
2013-04-04 04:15:00,51.3,18.3,30.26,ESE,118,4.0,6.0,27,0.00,,,0.00,meteohub,2013-04-04 08:15:00,
2013-04-04 04:20:00,51.3,18.3,30.26,ENE,64,4.0,6.0,27,0.00,,,0.00,meteohub,2013-04-04 08:20:00,
2013-04-04 04:25:00,51.3,18.3,30.26,ENE,69,5.0,9.0,27,0.00,,,0.00,meteohub,2013-04-04 08:25:00,
2013-04-04 04:30:00,51.1,18.3,30.26,ESE,107,3.0,9.0,27,0.00,,,0.00,meteohub,2013-04-04 08:30:00,
2013-04-04 04:35:00,51.1,18.3,30.26,ESE,111,3.0,9.0,27,0.00,,,0.00,meteohub,2013-04-04 08:35:00,
2013-04-04 04:40:00,51.1,18.3,30.26,ENE,63,5.0,8.0,27,0.00,,,0.00,meteohub,2013-04-04 08:40:00,
2013-04-04 04:45:00,51.1,18.3,30.26,East,92,4.0,8.0,27,0.00,,,0.00,meteohub,2013-04-04 08:45:00,
2013-04-04 04:50:00,50.9,18.1,30.26,ESE,117,11.0,11.0,27,0.00,,,0.00,meteohub,2013-04-04 08:50:00,
2013-04-04 04:55:00,50.9,18.1,30.26,East,96,7.0,11.0,27,0.00,,,0.00,meteohub,2013-04-04 08:55:00,
2013-04-04 05:00:00,50.7,18.0,30.26,ENE,61,7.0,11.0,27,0.00,,,0.00,meteohub,2013-04-04 09:00:00,
2013-04-04 05:06:00,50.7,18.0,30.26,SE,125,6.0,11.0,27,0.00,,,0.00,meteohub,2013-04-04 09:06:00,
2013-04-04 05:11:00,50.4,17.6,30.27,ESE,123,6.0,9.0,27,0.00,,,0.00,meteohub,2013-04-04 09:11:00,
2013-04-04 05:17:00,50.4,17.6,30.27,North,4,4.0,10.0,27,0.00,,,0.00,meteohub,2013-04-04 09:17:00,
2013-04-04 05:22:00,50.2,17.4,30.27,East,99,8.0,10.0,27,0.00,,,0.00,meteohub,2013-04-04 09:22:00,
2013-04-04 05:27:00,50.2,17.4,30.27,ENE,67,10.0,10.0,27,0.00,,,0.00,meteohub,2013-04-04 09:27:00,
2013-04-04 05:32:00,50.2,17.4,30.27,ESE,110,5.0,11.0,27,0.00,,,0.00,meteohub,2013-04-04 09:32:00,
2013-04-04 05:37:00,50.0,17.2,30.27,ESE,114,8.0,11.0,27,0.00,,,0.00,meteohub,2013-04-04 09:37:00,
2013-04-04 05:42:00,50.0,17.2,30.27,SSE,166,6.0,11.0,27,0.00,,,0.00,meteohub,2013-04-04 09:42:00,
2013-04-04 05:47:00,49.8,18.0,30.27,SSE,151,4.0,11.0,28,0.00,,,0.00,meteohub,2013-04-04 09:47:00,
2013-04-04 05:52:00,49.6,17.8,30.27,East,80,5.0,11.0,28,0.00,,,0.00,meteohub,2013-04-04 09:52:00,
2013-04-04 05:57:00,49.3,17.6,30.27,SE,131,6.0,10.0,28,0.00,,,0.00,meteohub,2013-04-04 09:57:00,
2013-04-04 06:02:00,49.1,18.1,30.27,ESE,122,5.0,10.0,29,0.00,,,0.00,meteohub,2013-04-04 10:02:00,
2013-04-04 06:07:00,48.9,18.0,30.27,ESE,119,4.0,10.0,29,0.00,,,0.00,meteohub,2013-04-04 10:07:00,
2013-04-04 06:12:00,48.9,18.9,30.27,SE,130,5.0,11.0,30,0.00,,,0.00,meteohub,2013-04-04 10:12:00,
2013-04-04 06:17:00,48.7,18.7,30.27,SE,143,6.0,11.0,30,0.00,,,0.00,meteohub,2013-04-04 10:17:00,
2013-04-04 06:24:00,48.7,18.7,30.27,East,93,11.0,11.0,30,0.00,,,0.00,meteohub,2013-04-04 10:24:00,
2013-04-04 06:29:00,48.6,17.8,30.27,SE,131,10.0,11.0,29,0.00,,,0.00,meteohub,2013-04-04 10:29:00,
2013-04-04 06:34:00,48.6,17.8,30.27,ESE,106,10.0,13.0,29,0.00,,,0.00,meteohub,2013-04-04 10:34:00,
2013-04-04 06:39:00,48.4,17.6,30.27,East,98,11.0,13.0,29,0.00,,,0.00,meteohub,2013-04-04 10:39:00,
2013-04-04 06:44:00,48.4,17.6,30.27,ESE,119,5.0,13.0,29,0.00,,,0.00,meteohub,2013-04-04 10:44:00,
2013-04-04 06:49:00,48.4,16.7,30.27,ESE,123,8.0,13.0,28,0.00,,,0.00,meteohub,2013-04-04 10:49:00,
2013-04-04 06:54:00,48.2,16.5,30.27,SE,130,9.0,13.0,28,0.00,,,0.00,meteohub,2013-04-04 10:54:00,
2013-04-04 07:00:00,48.2,16.5,30.27,SE,126,9.0,13.0,28,0.00,,,0.00,meteohub,2013-04-04 11:00:00,
2013-04-04 07:05:00,48.0,16.5,30.27,East,99,8.0,13.0,28,0.00,,,0.00,meteohub,2013-04-04 11:05:00,
2013-04-04 07:10:00,48.0,16.5,30.27,ENE,57,4.0,13.0,28,0.00,,,0.00,meteohub,2013-04-04 11:10:00,
2013-04-04 07:15:00,48.0,16.5,30.27,SE,125,5.0,12.0,28,0.00,,,0.00,meteohub,2013-04-04 11:15:00,
2013-04-04 07:20:00,47.8,16.3,30.27,SE,140,11.0,11.0,28,0.00,,,0.00,meteohub,2013-04-04 11:20:00,
2013-04-04 07:25:00,47.8,16.3,30.27,East,98,8.0,11.0,28,0.00,,,0.00,meteohub,2013-04-04 11:25:00,
2013-04-04 07:30:00,47.7,16.2,30.27,ESE,112,6.0,13.0,28,0.00,,,0.00,meteohub,2013-04-04 11:30:00,
2013-04-04 07:35:00,47.7,16.2,30.27,East,79,5.0,17.0,28,0.00,,,0.00,meteohub,2013-04-04 11:35:00,
2013-04-04 07:40:00,47.7,16.2,30.27,SE,144,10.0,17.0,28,0.00,,,0.00,meteohub,2013-04-04 11:40:00,
2013-04-04 07:45:00,47.5,15.1,30.27,East,82,10.0,12.0,27,0.00,,,0.00,meteohub,2013-04-04 11:45:00,
2013-04-04 07:51:00,47.5,15.1,30.27,SE,133,5.0,15.0,27,0.00,,,0.00,meteohub,2013-04-04 11:51:00,
2013-04-04 07:56:00,47.3,15.1,30.27,ESE,108,6.0,15.0,27,0.00,,,0.00,meteohub,2013-04-04 11:56:00,
2013-04-04 08:02:00,47.3,15.1,30.27,ESE,123,11.0,13.0,27,0.00,,,0.00,meteohub,2013-04-04 12:02:00,
2013-04-04 08:07:00,47.3,15.1,30.27,SE,135,8.0,15.0,27,0.00,,,0.00,meteohub,2013-04-04 12:07:00,
2013-04-04 08:12:00,47.1,14.9,30.27,SE,127,15.0,15.0,27,0.00,,,0.00,meteohub,2013-04-04 12:12:00,
2013-04-04 08:17:00,46.2,14.9,30.27,SE,133,8.0,15.0,28,0.00,,,0.00,meteohub,2013-04-04 12:17:00,
2013-04-04 08:22:00,46.2,14.9,30.27,SE,139,9.0,15.0,28,0.00,,,0.00,meteohub,2013-04-04 12:22:00,
2013-04-04 08:27:00,46.2,14.9,30.27,SE,134,13.0,15.0,28,0.00,,,0.00,meteohub,2013-04-04 12:27:00,
2013-04-04 08:32:00,46.4,15.1,30.27,SE,126,8.0,15.0,28,0.00,,,0.00,meteohub,2013-04-04 12:32:00,
2013-04-04 08:37:00,46.4,15.1,30.27,South,173,6.0,15.0,28,0.00,,,0.00,meteohub,2013-04-04 12:37:00,
2013-04-04 08:42:00,46.2,14.9,30.27,SE,146,8.0,15.0,28,0.00,,,0.00,meteohub,2013-04-04 12:42:00,
2013-04-04 08:47:00,46.2,14.9,30.27,SE,135,6.0,13.0,28,0.00,,,0.00,meteohub,2013-04-04 12:47:00,
2013-04-04 08:52:00,46.2,14.9,30.28,ENE,70,5.0,13.0,28,0.00,,,0.00,meteohub,2013-04-04 12:52:00,
2013-04-04 08:57:00,46.2,14.9,30.28,East,83,11.0,14.0,28,0.00,,,0.00,meteohub,2013-04-04 12:57:00,
2013-04-04 09:02:00,46.2,14.9,30.28,East,91,8.0,14.0,28,0.00,,,0.00,meteohub,2013-04-04 13:02:00,
2013-04-04 09:07:00,46.2,14.9,30.28,ESE,103,3.0,13.0,28,0.00,,,0.00,meteohub,2013-04-04 13:07:00,
2013-04-04 09:12:00,46.0,14.7,30.28,East,96,8.0,11.0,28,0.00,,,0.00,meteohub,2013-04-04 13:12:00,
2013-04-04 09:17:00,46.0,14.7,30.28,SE,132,11.0,11.0,28,0.00,,,0.00,meteohub,2013-04-04 13:17:00,
2013-04-04 09:22:00,45.9,14.5,30.28,East,99,8.0,13.0,28,0.00,,,0.00,meteohub,2013-04-04 13:22:00,
2013-04-04 09:27:00,45.9,14.5,30.28,ESE,109,8.0,15.0,28,0.00,,,0.00,meteohub,2013-04-04 13:27:00,
2013-04-04 09:32:00,45.9,14.5,30.28,ESE,113,4.0,15.0,28,0.00,,,0.00,meteohub,2013-04-04 13:32:00,
2013-04-04 09:37:00,45.5,14.4,30.28,SE,125,6.0,15.0,28,0.00,,,0.00,meteohub,2013-04-04 13:37:00,
2013-04-04 09:42:00,45.5,14.4,30.25,SSE,156,13.0,13.0,28,0.00,,,0.00,meteohub,2013-04-04 13:42:00,
2013-04-04 09:48:00,45.5,15.1,30.25,ESE,112,6.0,13.0,29,0.00,,,0.00,meteohub,2013-04-04 13:48:00,
2013-04-04 09:53:00,45.5,15.1,30.25,SE,144,8.0,15.0,29,0.00,,,0.00,meteohub,2013-04-04 13:53:00,
2013-04-04 09:58:00,45.9,15.4,30.25,ESE,111,12.0,15.0,29,0.00,,,0.00,meteohub,2013-04-04 13:58:00,
2013-04-04 10:03:00,45.9,15.4,30.25,ESE,118,11.0,17.0,29,0.00,,,0.00,meteohub,2013-04-04 14:03:00,
2013-04-04 10:08:00,45.9,14.5,30.25,SSE,159,6.0,17.0,28,0.00,,,0.00,meteohub,2013-04-04 14:08:00,
2013-04-04 10:13:00,45.7,14.4,30.28,ESE,103,4.0,17.0,28,0.00,,,0.00,meteohub,2013-04-04 14:13:00,
2013-04-04 10:18:00,45.7,15.3,30.28,SE,129,10.0,11.0,29,0.00,,,0.00,meteohub,2013-04-04 14:18:00,
2013-04-04 10:23:00,45.9,15.4,30.28,SSE,157,8.0,11.0,29,0.00,,,0.00,meteohub,2013-04-04 14:23:00,
2013-04-04 10:28:00,45.9,15.4,30.25,SE,134,6.0,13.0,29,0.00,,,0.00,meteohub,2013-04-04 14:28:00,
2013-04-04 10:33:00,45.7,15.3,30.25,SSE,155,5.0,17.0,29,0.00,,,0.00,meteohub,2013-04-04 14:33:00,
2013-04-04 10:38:00,45.5,15.1,30.25,ENE,74,8.0,17.0,29,0.00,,,0.00,meteohub,2013-04-04 14:38:00,
2013-04-04 10:43:00,45.1,15.6,30.28,ESE,119,8.0,11.0,30,0.00,,,0.00,meteohub,2013-04-04 14:43:00,
2013-04-04 10:48:00,45.0,16.2,30.28,ESE,113,4.0,12.0,31,0.00,,,0.00,meteohub,2013-04-04 14:48:00,
2013-04-04 10:53:00,44.8,16.7,30.28,SE,125,6.0,12.0,32,0.00,,,0.00,meteohub,2013-04-04 14:53:00,
2013-04-04 10:58:00,44.1,18.9,30.28,East,89,6.0,12.0,36,0.00,,,0.00,meteohub,2013-04-04 14:58:00,
2013-04-04 11:03:00,43.5,20.1,30.28,ESE,114,6.0,12.0,39,0.00,,,0.00,meteohub,2013-04-04 15:03:00,
2013-04-04 11:08:00,42.8,20.7,30.29,SE,131,5.0,12.0,41,0.00,,,0.00,meteohub,2013-04-04 15:08:00,
2013-04-04 11:13:00,42.6,21.2,30.29,East,83,6.0,12.0,42,0.00,,,0.00,meteohub,2013-04-04 15:13:00,
2013-04-04 11:18:00,42.3,21.9,30.29,ESE,117,4.0,12.0,44,0.00,,,0.00,meteohub,2013-04-04 15:18:00,
2013-04-04 11:23:00,42.3,23.0,30.29,ESE,102,9.0,12.0,46,0.00,,,0.00,meteohub,2013-04-04 15:23:00,
2013-04-04 11:28:00,42.1,23.7,30.29,East,79,5.0,9.0,48,0.00,,,0.00,meteohub,2013-04-04 15:28:00,
2013-04-04 11:33:00,41.9,23.7,30.29,NE,43,7.0,9.0,48,0.00,,,0.00,meteohub,2013-04-04 15:33:00,
2013-04-04 11:38:00,41.9,23.7,30.29,East,85,6.0,9.0,48,0.00,,,0.00,meteohub,2013-04-04 15:38:00,
2013-04-04 11:43:00,41.9,24.1,30.29,SE,124,4.0,11.0,49,0.00,,,0.00,meteohub,2013-04-04 15:43:00,
2013-04-04 11:48:00,41.7,23.9,30.29,ESE,122,5.0,11.0,49,0.00,,,0.00,meteohub,2013-04-04 15:48:00,
2013-04-04 11:53:00,41.7,24.4,30.29,ENE,62,5.0,10.0,50,0.00,,,0.00,meteohub,2013-04-04 15:53:00,
2013-04-04 11:58:00,41.5,24.8,30.29,East,99,4.0,9.0,51,0.04,,,0.04,meteohub,2013-04-04 15:58:00,
2013-04-04 12:03:00,41.2,24.8,30.29,ESE,114,3.0,9.0,52,0.04,,,0.04,meteohub,2013-04-04 16:03:00,
2013-04-04 12:09:00,41.0,25.2,30.29,East,83,4.0,8.0,53,0.04,,,0.04,meteohub,2013-04-04 16:09:00,
2013-04-04 12:14:00,41.0,25.7,30.26,ESE,114,6.0,9.0,54,0.08,,,0.08,meteohub,2013-04-04 16:14:00,
2013-04-04 12:19:00,41.5,26.6,30.26,ENE,68,6.0,9.0,55,0.08,,,0.08,meteohub,2013-04-04 16:19:00,
2013-04-04 12:24:00,41.5,27.0,30.26,ESE,106,5.0,9.0,56,0.08,,,0.08,meteohub,2013-04-04 16:24:00,
2013-04-04 12:29:00,41.4,26.8,30.29,East,85,8.0,9.0,56,0.08,,,0.08,meteohub,2013-04-04 16:29:00,
2013-04-04 12:35:00,41.0,27.0,30.29,ESE,118,4.0,9.0,57,0.08,,,0.08,meteohub,2013-04-04 16:35:00,
2013-04-04 12:40:00,40.6,27.0,30.29,ESE,102,4.0,9.0,58,0.08,,,0.08,meteohub,2013-04-04 16:40:00,
2013-04-04 12:45:00,40.8,27.7,30.29,ESE,106,6.0,9.0,59,0.08,,,0.08,meteohub,2013-04-04 16:45:00,
2013-04-04 12:50:00,40.8,27.7,30.29,East,91,4.0,8.0,59,0.08,,,0.08,meteohub,2013-04-04 16:50:00,
2013-04-04 12:55:00,41.0,27.9,30.29,East,96,6.0,8.0,59,0.08,,,0.08,meteohub,2013-04-04 16:55:00,
2013-04-04 13:00:00,41.2,28.8,30.29,ENE,61,5.0,8.0,61,0.04,,,0.08,meteohub,2013-04-04 17:00:00,
2013-04-04 13:05:00,41.2,28.8,30.29,ESE,104,11.0,11.0,61,0.04,,,0.08,meteohub,2013-04-04 17:05:00,
2013-04-04 13:10:00,41.0,28.9,30.29,East,89,6.0,13.0,62,0.00,,,0.08,meteohub,2013-04-04 17:10:00,
2013-04-04 13:15:00,40.8,28.8,30.26,ENE,70,3.0,14.0,62,0.00,,,0.08,meteohub,2013-04-04 17:15:00,
2013-04-04 13:20:00,40.6,29.1,30.26,ENE,74,6.0,14.0,63,0.00,,,0.08,meteohub,2013-04-04 17:20:00,
2013-04-04 13:25:00,40.6,29.1,30.26,SE,142,8.0,14.0,63,0.00,,,0.08,meteohub,2013-04-04 17:25:00,
2013-04-04 13:30:00,40.3,29.1,30.23,ESE,123,12.0,13.0,64,0.04,,,0.12,meteohub,2013-04-04 17:30:00,
2013-04-04 13:35:00,39.9,29.1,30.23,ENE,72,6.0,13.0,65,0.04,,,0.12,meteohub,2013-04-04 17:35:00,
2013-04-04 13:40:00,39.9,29.1,30.23,ESE,113,8.0,13.0,65,0.04,,,0.12,meteohub,2013-04-04 17:40:00,
2013-04-04 13:46:00,39.9,29.5,30.23,ESE,120,6.0,17.0,66,0.04,,,0.12,meteohub,2013-04-04 17:46:00,
2013-04-04 13:51:00,39.7,29.7,30.23,SE,131,6.0,17.0,67,0.04,,,0.12,meteohub,2013-04-04 17:51:00,
2013-04-04 13:57:00,39.7,30.0,30.23,ENE,74,6.0,17.0,68,0.04,,,0.12,meteohub,2013-04-04 17:57:00,
2013-04-04 14:02:00,39.6,30.2,30.20,East,100,11.0,15.0,69,0.04,,,0.12,meteohub,2013-04-04 18:02:00,
2013-04-04 14:07:00,39.4,30.4,30.20,SSE,157,9.0,13.0,70,0.04,,,0.12,meteohub,2013-04-04 18:07:00,
2013-04-04 14:12:00,39.2,30.6,30.20,ESE,111,8.0,13.0,71,0.08,,,0.17,meteohub,2013-04-04 18:12:00,
2013-04-04 14:17:00,39.0,30.7,30.20,ESE,118,8.0,14.0,72,0.08,,,0.17,meteohub,2013-04-04 18:17:00,
2013-04-04 14:22:00,39.0,31.1,30.20,SE,136,5.0,14.0,73,0.08,,,0.17,meteohub,2013-04-04 18:22:00,
2013-04-04 14:27:00,38.8,31.3,30.20,East,86,11.0,14.0,74,0.12,,,0.20,meteohub,2013-04-04 18:27:00,
2013-04-04 14:32:00,38.7,31.5,30.20,SE,124,8.0,14.0,75,0.08,,,0.20,meteohub,2013-04-04 18:32:00,
2013-04-04 14:37:00,38.7,31.5,30.20,SE,136,6.0,14.0,75,0.13,,,0.25,meteohub,2013-04-04 18:37:00,
2013-04-04 14:42:00,38.7,31.8,30.20,ENE,73,12.0,12.0,76,0.17,,,0.29,meteohub,2013-04-04 18:42:00,
2013-04-04 14:47:00,38.5,31.8,30.20,ESE,115,8.0,14.0,77,0.21,,,0.33,meteohub,2013-04-04 18:47:00,
2013-04-04 14:52:00,38.5,31.8,30.20,ENE,74,3.0,14.0,77,0.21,,,0.33,meteohub,2013-04-04 18:52:00,
2013-04-04 14:57:00,38.7,32.4,30.20,ESE,119,7.0,14.0,78,0.25,,,0.37,meteohub,2013-04-04 18:57:00,
2013-04-04 15:02:00,38.7,32.4,30.20,ESE,103,6.0,13.0,78,0.25,,,0.37,meteohub,2013-04-04 19:02:00,
2013-04-04 15:07:00,38.7,32.4,30.20,ESE,119,10.0,11.0,78,0.25,,,0.37,meteohub,2013-04-04 19:07:00,
2013-04-04 15:12:00,38.7,32.7,30.20,East,84,6.0,10.0,79,0.21,,,0.37,meteohub,2013-04-04 19:12:00,
2013-04-04 15:17:00,38.7,32.7,30.20,East,84,8.0,11.0,79,0.21,,,0.37,meteohub,2013-04-04 19:17:00,
2013-04-04 15:22:00,38.7,33.1,30.20,ESE,105,4.0,11.0,80,0.21,,,0.37,meteohub,2013-04-04 19:22:00,
2013-04-04 15:27:00,38.8,33.3,30.20,SSE,154,3.0,11.0,80,0.17,,,0.37,meteohub,2013-04-04 19:27:00,
2013-04-04 15:32:00,38.8,33.4,30.20,ENE,76,5.0,11.0,81,0.17,,,0.37,meteohub,2013-04-04 19:32:00,
2013-04-04 15:37:00,38.8,33.4,30.20,East,80,5.0,11.0,81,0.09,,,0.37,meteohub,2013-04-04 19:37:00,
2013-04-04 15:42:00,38.8,33.4,30.17,ESE,119,9.0,11.0,81,0.13,,,0.41,meteohub,2013-04-04 19:42:00,
2013-04-04 15:47:00,38.8,33.8,30.17,East,95,8.0,11.0,82,0.08,,,0.41,meteohub,2013-04-04 19:47:00,
2013-04-04 15:52:00,38.8,33.8,30.17,ESE,114,5.0,11.0,82,0.04,,,0.41,meteohub,2013-04-04 19:52:00,
2013-04-04 15:58:00,38.8,34.2,30.17,East,100,6.0,11.0,83,0.04,,,0.41,meteohub,2013-04-04 19:58:00,
2013-04-04 16:03:00,38.8,34.2,30.17,ESE,106,8.0,9.0,83,0.04,,,0.41,meteohub,2013-04-04 20:03:00,
2013-04-04 16:08:00,38.8,34.3,30.17,East,99,10.0,11.0,84,0.04,,,0.41,meteohub,2013-04-04 20:08:00,
2013-04-04 16:13:00,38.8,34.3,30.17,NE,56,5.0,11.0,84,0.04,,,0.41,meteohub,2013-04-04 20:13:00,
2013-04-04 16:18:00,38.8,34.3,30.17,ESE,108,3.0,11.0,84,0.04,,,0.41,meteohub,2013-04-04 20:18:00,
2013-04-04 16:23:00,38.8,34.3,30.17,ENE,70,8.0,11.0,84,0.04,,,0.41,meteohub,2013-04-04 20:23:00,
2013-04-04 16:28:00,38.8,34.3,30.17,East,96,8.0,11.0,84,0.04,,,0.41,meteohub,2013-04-04 20:28:00,
2013-04-04 16:33:00,39.0,34.9,30.17,East,99,11.0,11.0,85,0.04,,,0.41,meteohub,2013-04-04 20:33:00,
2013-04-04 16:38:00,39.2,34.7,30.17,ENE,62,8.0,11.0,84,0.04,,,0.41,meteohub,2013-04-04 20:38:00,
2013-04-04 16:43:00,39.2,34.7,30.14,East,91,3.0,15.0,84,0.00,,,0.41,meteohub,2013-04-04 20:43:00,
2013-04-04 16:48:00,39.0,34.9,30.14,East,82,5.0,15.0,85,0.00,,,0.41,meteohub,2013-04-04 20:48:00,
2013-04-04 16:53:00,39.0,34.5,30.14,ESE,115,8.0,15.0,84,0.00,,,0.41,meteohub,2013-04-04 20:53:00,
2013-04-04 16:58:00,39.0,34.5,30.14,East,88,5.0,13.0,84,0.00,,,0.41,meteohub,2013-04-04 20:58:00,
2013-04-04 17:03:00,38.8,34.3,30.14,SE,127,6.0,13.0,84,0.00,,,0.41,meteohub,2013-04-04 21:03:00,
2013-04-04 17:08:00,39.0,34.5,30.14,SE,137,6.0,13.0,84,0.00,,,0.41,meteohub,2013-04-04 21:08:00,
2013-04-04 17:13:00,39.0,34.5,30.14,SSE,160,11.0,13.0,84,0.00,,,0.41,meteohub,2013-04-04 21:13:00,
2013-04-04 17:18:00,39.0,34.5,30.14,ENE,73,8.0,13.0,84,0.00,,,0.41,meteohub,2013-04-04 21:18:00,
2013-04-04 17:23:00,38.8,34.3,30.14,ENE,76,8.0,11.0,84,0.00,,,0.41,meteohub,2013-04-04 21:23:00,
2013-04-04 17:30:00,39.0,34.5,30.14,ESE,110,5.0,13.0,84,0.00,,,0.41,meteohub,2013-04-04 21:30:00,
2013-04-04 17:35:00,39.0,34.5,30.14,ENE,74,8.0,13.0,84,0.00,,,0.41,meteohub,2013-04-04 21:35:00,
2013-04-04 17:40:00,39.0,34.5,30.14,ESE,119,6.0,13.0,84,0.00,,,0.41,meteohub,2013-04-04 21:40:00,
2013-04-04 17:45:00,39.2,34.7,30.14,East,94,4.0,11.0,84,0.00,,,0.41,meteohub,2013-04-04 21:45:00,
2013-04-04 17:50:00,39.2,34.7,30.14,East,90,8.0,11.0,84,0.00,,,0.41,meteohub,2013-04-04 21:50:00,
2013-04-04 17:55:00,39.2,34.7,30.14,SE,134,9.0,11.0,84,0.00,,,0.41,meteohub,2013-04-04 21:55:00,
2013-04-04 18:00:00,39.2,34.7,30.14,East,83,4.0,11.0,84,0.00,,,0.41,meteohub,2013-04-04 22:00:00,
2013-04-04 18:05:00,39.2,34.7,30.14,ESE,104,10.0,11.0,84,0.00,,,0.41,meteohub,2013-04-04 22:05:00,
2013-04-04 18:10:00,39.2,34.7,30.14,ESE,104,8.0,11.0,84,0.00,,,0.41,meteohub,2013-04-04 22:10:00,
2013-04-04 18:15:00,39.0,34.9,30.14,East,97,4.0,11.0,85,0.00,,,0.41,meteohub,2013-04-04 22:15:00,
2013-04-04 18:20:00,39.0,34.9,30.14,SSE,149,8.0,11.0,85,0.00,,,0.41,meteohub,2013-04-04 22:20:00,
2013-04-04 18:25:00,39.2,34.7,30.14,SE,132,8.0,11.0,84,0.00,,,0.41,meteohub,2013-04-04 22:25:00,
2013-04-04 18:31:00,39.2,34.7,30.14,ENE,78,5.0,11.0,84,0.00,,,0.41,meteohub,2013-04-04 22:31:00,
2013-04-04 18:37:00,39.2,35.1,30.14,SE,128,8.0,11.0,85,0.04,,,0.46,meteohub,2013-04-04 22:37:00,
2013-04-04 18:42:00,39.2,35.1,30.14,ESE,108,6.0,11.0,85,0.04,,,0.46,meteohub,2013-04-04 22:42:00,
2013-04-04 18:46:00,39.2,35.1,30.14,SE,133,8.0,11.0,85,0.04,,,0.46,meteohub,2013-04-04 22:46:00,
2013-04-04 18:51:00,39.0,35.2,30.14,East,85,4.0,11.0,86,0.04,,,0.46,meteohub,2013-04-04 22:51:00,
2013-04-04 18:57:00,39.0,35.2,30.14,ESE,102,11.0,11.0,86,0.04,,,0.46,meteohub,2013-04-04 22:57:00,
2013-04-04 19:02:00,39.0,35.2,30.14,SSE,157,6.0,11.0,86,0.04,,,0.46,meteohub,2013-04-04 23:02:00,
2013-04-04 19:07:00,39.0,35.2,30.14,ESE,112,4.0,11.0,86,0.04,,,0.46,meteohub,2013-04-04 23:07:00,
2013-04-04 19:12:00,39.0,35.2,30.14,East,89,3.0,11.0,86,0.04,,,0.46,meteohub,2013-04-04 23:12:00,
2013-04-04 19:17:00,39.0,35.2,30.14,East,101,6.0,9.0,86,0.04,,,0.46,meteohub,2013-04-04 23:17:00,
2013-04-04 19:22:00,39.0,35.2,30.14,ESE,107,4.0,8.0,86,0.04,,,0.46,meteohub,2013-04-04 23:22:00,
2013-04-04 19:27:00,39.0,35.2,30.11,SE,142,5.0,11.0,86,0.00,,,0.46,meteohub,2013-04-04 23:27:00,
2013-04-04 19:32:00,39.0,35.2,30.11,ENE,74,8.0,12.0,86,0.00,,,0.46,meteohub,2013-04-04 23:32:00,
2013-04-04 19:37:00,39.0,35.2,30.11,East,98,8.0,12.0,86,0.00,,,0.46,meteohub,2013-04-04 23:37:00,
2013-04-04 19:42:00,39.0,35.2,30.11,SE,137,6.0,13.0,86,0.00,,,0.46,meteohub,2013-04-04 23:42:00,
2013-04-04 19:47:00,39.0,35.2,30.11,ENE,59,6.0,13.0,86,0.00,,,0.46,meteohub,2013-04-04 23:47:00,
2013-04-04 19:52:00,39.0,35.2,30.11,ESE,114,8.0,13.0,86,0.00,,,0.46,meteohub,2013-04-04 23:52:00,
2013-04-04 19:57:00,39.0,35.2,30.11,ENE,60,8.0,13.0,86,0.00,,,0.46,meteohub,2013-04-04 23:57:00,
2013-04-04 20:02:00,39.0,35.2,30.11,ESE,118,8.0,11.0,86,0.00,,,0.46,meteohub,2013-04-05 00:02:00,
2013-04-04 20:07:00,39.0,35.2,30.11,East,93,6.0,12.0,86,0.00,,,0.00,meteohub,2013-04-05 00:07:00,
2013-04-04 20:12:00,39.0,35.2,30.11,ESE,117,4.0,12.0,86,0.00,,,0.00,meteohub,2013-04-05 00:12:00,
2013-04-04 20:17:00,39.0,35.2,30.11,East,82,4.0,9.0,86,0.00,,,0.00,meteohub,2013-04-05 00:17:00,
2013-04-04 20:22:00,39.0,35.2,30.11,SE,130,6.0,11.0,86,0.00,,,0.00,meteohub,2013-04-05 00:22:00,
2013-04-04 20:27:00,39.0,35.2,30.11,NE,56,6.0,11.0,86,0.00,,,0.00,meteohub,2013-04-05 00:27:00,
2013-04-04 20:32:00,39.0,35.2,30.11,ESE,119,8.0,11.0,86,0.00,,,0.00,meteohub,2013-04-05 00:32:00,
2013-04-04 20:37:00,39.2,35.1,30.11,SE,129,5.0,11.0,85,0.00,,,0.00,meteohub,2013-04-05 00:37:00,
2013-04-04 20:42:00,39.2,35.1,30.11,ENE,73,4.0,10.0,85,0.00,,,0.00,meteohub,2013-04-05 00:42:00,
2013-04-04 20:47:00,39.2,35.1,30.11,East,97,4.0,10.0,85,0.00,,,0.00,meteohub,2013-04-05 00:47:00,
2013-04-04 20:52:00,39.2,35.1,30.11,SE,129,4.0,9.0,85,0.00,,,0.00,meteohub,2013-04-05 00:52:00,
2013-04-04 20:57:00,39.2,35.1,30.11,East,97,5.0,9.0,85,0.00,,,0.00,meteohub,2013-04-05 00:57:00,
2013-04-04 21:02:00,39.2,34.7,30.11,SE,133,8.0,9.0,84,0.00,,,0.00,meteohub,2013-04-05 01:02:00,
2013-04-04 21:08:00,39.2,34.7,30.11,ESE,105,8.0,11.0,84,0.00,,,0.00,meteohub,2013-04-05 01:08:00,
2013-04-04 21:13:00,39.2,34.7,30.11,SE,134,4.0,11.0,84,0.00,,,0.00,meteohub,2013-04-05 01:13:00,
2013-04-04 21:18:00,39.2,34.7,30.11,ESE,113,9.0,11.0,84,0.00,,,0.00,meteohub,2013-04-05 01:18:00,
2013-04-04 21:23:00,39.2,34.7,30.11,East,100,5.0,10.0,84,0.00,,,0.00,meteohub,2013-04-05 01:23:00,
2013-04-04 21:28:00,39.4,34.9,30.11,ESE,113,7.0,10.0,84,0.00,,,0.00,meteohub,2013-04-05 01:28:00,
2013-04-04 21:33:00,39.4,34.7,30.11,SE,125,6.0,11.0,83,0.00,,,0.00,meteohub,2013-04-05 01:33:00,
2013-04-04 21:38:00,39.4,34.7,30.11,SSE,148,3.0,11.0,83,0.00,,,0.00,meteohub,2013-04-05 01:38:00,
2013-04-04 21:43:00,39.4,34.7,30.11,SE,127,4.0,11.0,83,0.00,,,0.00,meteohub,2013-04-05 01:43:00,
2013-04-04 21:48:00,39.4,34.7,30.11,ESE,105,9.0,9.0,83,0.00,,,0.00,meteohub,2013-04-05 01:48:00,
2013-04-04 21:53:00,39.4,34.3,30.11,East,97,6.0,9.0,82,0.00,,,0.00,meteohub,2013-04-05 01:53:00,
2013-04-04 21:58:00,39.4,34.3,30.11,ENE,72,3.0,9.0,82,0.00,,,0.00,meteohub,2013-04-05 01:58:00,
2013-04-04 22:03:00,39.4,34.3,30.11,East,101,5.0,9.0,82,0.00,,,0.00,meteohub,2013-04-05 02:03:00,
2013-04-04 22:08:00,39.4,34.3,30.11,ESE,115,4.0,8.0,82,0.00,,,0.00,meteohub,2013-04-05 02:08:00,
2013-04-04 22:13:00,39.4,34.3,30.11,ESE,117,6.0,8.0,82,0.00,,,0.00,meteohub,2013-04-05 02:13:00,
2013-04-04 22:18:00,39.4,34.3,30.11,ENE,62,4.0,8.0,82,0.00,,,0.00,meteohub,2013-04-05 02:18:00,
2013-04-04 22:23:00,39.6,34.5,30.11,East,82,3.0,8.0,82,0.00,,,0.00,meteohub,2013-04-05 02:23:00,
2013-04-04 22:28:00,39.6,34.5,30.11,ESE,111,3.0,8.0,82,0.00,,,0.00,meteohub,2013-04-05 02:28:00,
2013-04-04 22:33:00,39.6,34.5,30.11,East,90,3.0,8.0,82,0.00,,,0.00,meteohub,2013-04-05 02:33:00,
2013-04-04 22:38:00,39.6,34.5,30.11,SE,125,5.0,7.0,82,0.00,,,0.00,meteohub,2013-04-05 02:38:00,
2013-04-04 22:44:00,39.6,34.5,30.11,ESE,105,4.0,8.0,82,0.00,,,0.00,meteohub,2013-04-05 02:44:00,
2013-04-04 22:49:00,39.6,34.5,30.11,ENE,68,3.0,8.0,82,0.00,,,0.00,meteohub,2013-04-05 02:49:00,
2013-04-04 22:54:00,39.6,34.5,30.11,ESE,112,6.0,6.0,82,0.00,,,0.00,meteohub,2013-04-05 02:54:00,
2013-04-04 22:59:00,39.6,34.5,30.08,ESE,116,4.0,6.0,82,0.00,,,0.00,meteohub,2013-04-05 02:59:00,
2013-04-04 23:04:00,39.6,34.9,30.08,ESE,108,3.0,7.0,83,0.00,,,0.00,meteohub,2013-04-05 03:04:00,
2013-04-04 23:09:00,39.6,34.9,30.08,East,97,3.0,7.0,83,0.00,,,0.00,meteohub,2013-04-05 03:09:00,
2013-04-04 23:14:00,39.7,35.1,30.08,ENE,69,4.0,7.0,83,0.00,,,0.00,meteohub,2013-04-05 03:14:00,
2013-04-04 23:19:00,39.7,35.1,30.08,East,98,4.0,7.0,83,0.00,,,0.00,meteohub,2013-04-05 03:19:00,
2013-04-04 23:24:00,39.7,35.1,30.08,ENE,63,3.0,6.0,83,0.00,,,0.00,meteohub,2013-04-05 03:24:00,
2013-04-04 23:29:00,39.7,35.2,30.08,ESE,117,4.0,6.0,84,0.00,,,0.00,meteohub,2013-04-05 03:29:00,
2013-04-04 23:34:00,39.7,35.2,30.08,ESE,102,3.0,6.0,84,0.00,,,0.00,meteohub,2013-04-05 03:34:00,
2013-04-04 23:39:00,39.7,35.2,30.08,ESE,104,3.0,6.0,84,0.00,,,0.00,meteohub,2013-04-05 03:39:00,
2013-04-04 23:45:00,39.7,35.2,30.08,SSE,152,0.0,6.0,84,0.00,,,0.00,meteohub,2013-04-05 03:45:00,
2013-04-04 23:49:00,39.7,35.2,30.08,SSE,152,0.0,5.0,84,0.00,,,0.00,meteohub,2013-04-05 03:49:00,
2013-04-04 23:55:00,39.9,35.4,30.08,SSE,152,3.0,4.0,84,0.00,,,0.00,meteohub,2013-04-05 03:55:00,